Time,TemperatureF,DewpointF,PressureIn,WindDirection,WindDirectionDegrees,WindSpeedMPH,WindSpeedGustMPH,Humidity,HourlyPrecipIn,Conditions,Clouds,dailyrainin,SoftwareType,DateUTC
2013-12-03 00:12:00,30.6,28.8,29.76,ESE,112,0.0,-999.0,93,-99.99,,,0.00,Acu-Link.com,2013-12-03 05:12:00,
2013-12-03 00:28:00,30.7,29.2,29.77,ESE,112,0.0,-999.0,94,-99.99,,,0.00,Acu-Link.com,2013-12-03 05:28:00,
2013-12-03 00:43:00,30.9,29.4,29.76,ESE,112,0.0,-999.0,94,-99.99,,,0.00,Acu-Link.com,2013-12-03 05:43:00,
2013-12-03 00:58:00,31.1,29.6,29.77,ESE,112,0.0,-999.0,94,-99.99,,,0.00,Acu-Link.com,2013-12-03 05:58:00,
2013-12-03 01:13:00,31.3,29.8,29.77,ESE,112,0.0,-999.0,94,-99.99,,,0.00,Acu-Link.com,2013-12-03 06:13:00,
2013-12-03 01:28:00,31.3,29.8,29.77,ESE,112,0.0,-999.0,94,-99.99,,,0.00,Acu-Link.com,2013-12-03 06:28:00,
2013-12-03 01:43:00,31.3,29.8,29.77,ESE,112,0.0,-999.0,94,-99.99,,,0.00,Acu-Link.com,2013-12-03 06:43:00,
2013-12-03 01:58:00,31.3,29.8,29.77,ESE,112,0.0,-999.0,94,-99.99,,,0.00,Acu-Link.com,2013-12-03 06:58:00,
2013-12-03 02:13:00,31.3,29.8,29.77,ESE,112,0.0,-999.0,94,-99.99,,,0.00,Acu-Link.com,2013-12-03 07:13:00,
2013-12-03 02:28:00,31.5,30.2,29.77,East,90,0.0,-999.0,95,-99.99,,,0.00,Acu-Link.com,2013-12-03 07:28:00,
2013-12-03 02:43:00,31.6,30.3,29.78,East,90,0.0,-999.0,95,-99.99,,,0.00,Acu-Link.com,2013-12-03 07:43:00,
2013-12-03 02:59:00,31.8,30.5,29.78,East,90,0.0,-999.0,95,-99.99,,,0.00,Acu-Link.com,2013-12-03 07:59:00,
2013-12-03 03:14:00,31.8,30.5,29.78,East,90,0.0,-999.0,95,-99.99,,,0.00,Acu-Link.com,2013-12-03 08:14:00,
2013-12-03 03:29:00,31.8,30.5,29.78,East,90,0.0,-999.0,95,-99.99,,,0.00,Acu-Link.com,2013-12-03 08:29:00,
2013-12-03 03:44:00,31.8,30.5,29.77,East,90,0.0,-999.0,95,-99.99,,,0.00,Acu-Link.com,2013-12-03 08:44:00,
2013-12-03 03:59:00,31.8,30.5,29.77,East,90,0.0,-999.0,95,-99.99,,,0.00,Acu-Link.com,2013-12-03 08:59:00,
2013-12-03 04:14:00,31.8,30.5,29.77,East,90,0.0,-999.0,95,-99.99,,,0.00,Acu-Link.com,2013-12-03 09:14:00,
2013-12-03 04:29:00,31.8,30.5,29.77,East,90,0.0,-999.0,95,-99.99,,,0.00,Acu-Link.com,2013-12-03 09:29:00,
2013-12-03 04:44:00,31.8,30.5,29.78,East,90,0.0,-999.0,95,-99.99,,,0.00,Acu-Link.com,2013-12-03 09:44:00,
2013-12-03 04:59:00,32.0,30.7,29.78,East,90,0.0,-999.0,95,-99.99,,,0.00,Acu-Link.com,2013-12-03 09:59:00,
2013-12-03 05:15:00,32.0,30.7,29.78,East,90,0.0,-999.0,95,-99.99,,,0.00,Acu-Link.com,2013-12-03 10:15:00,
2013-12-03 05:30:00,32.0,30.7,29.77,East,90,0.0,-999.0,95,-99.99,,,0.00,Acu-Link.com,2013-12-03 10:30:00,
2013-12-03 05:45:00,32.0,30.7,29.78,East,90,0.0,-999.0,95,-99.99,,,0.00,Acu-Link.com,2013-12-03 10:45:00,
2013-12-03 06:00:00,32.0,30.7,29.78,East,90,0.0,-999.0,95,-99.99,,,0.00,Acu-Link.com,2013-12-03 11:00:00,
2013-12-03 06:15:00,32.2,30.9,29.79,East,90,0.0,-999.0,95,-99.99,,,0.00,Acu-Link.com,2013-12-03 11:15:00,
2013-12-03 06:30:00,32.2,30.9,29.79,East,90,0.0,-999.0,95,-99.99,,,0.00,Acu-Link.com,2013-12-03 11:30:00,
2013-12-03 06:45:00,32.2,30.9,29.79,East,90,0.0,-999.0,95,-99.99,,,0.00,Acu-Link.com,2013-12-03 11:45:00,
2013-12-03 07:00:00,32.2,30.9,29.80,East,90,0.0,-999.0,95,-99.99,,,0.00,Acu-Link.com,2013-12-03 12:00:00,
2013-12-03 07:15:00,32.4,31.1,29.80,East,90,0.0,-999.0,95,-99.99,,,0.00,Acu-Link.com,2013-12-03 12:15:00,
2013-12-03 07:31:00,32.5,31.5,29.81,East,90,0.0,-999.0,96,-99.99,,,0.00,Acu-Link.com,2013-12-03 12:31:00,
2013-12-03 07:46:00,32.5,31.5,29.81,East,90,0.0,-999.0,96,-99.99,,,0.00,Acu-Link.com,2013-12-03 12:46:00,
2013-12-03 08:01:00,32.5,31.5,29.81,East,90,0.0,-999.0,96,-99.99,,,0.00,Acu-Link.com,2013-12-03 13:01:00,
2013-12-03 08:16:00,32.9,31.9,29.81,NW,315,0.0,-999.0,96,-99.99,,,0.00,Acu-Link.com,2013-12-03 13:16:00,
2013-12-03 08:31:00,33.4,32.4,29.82,NW,315,0.0,-999.0,96,-99.99,,,0.01,Acu-Link.com,2013-12-03 13:31:00,
2013-12-03 08:46:00,34.0,33.0,29.81,NW,315,0.0,-999.0,96,-99.99,,,0.01,Acu-Link.com,2013-12-03 13:46:00,
2013-12-03 09:01:00,34.7,33.4,29.81,NW,315,0.0,-999.0,95,-99.99,,,0.01,Acu-Link.com,2013-12-03 14:01:00,
2013-12-03 09:16:00,35.2,33.4,29.82,NW,315,0.0,-999.0,93,-99.99,,,0.02,Acu-Link.com,2013-12-03 14:16:00,
2013-12-03 09:31:00,36.0,34.2,29.82,NW,315,0.0,-999.0,93,-99.99,,,0.02,Acu-Link.com,2013-12-03 14:31:00,
2013-12-03 09:47:00,36.5,33.9,29.82,NW,315,1.7,-999.0,90,-99.99,,,0.02,Acu-Link.com,2013-12-03 14:47:00,
2013-12-03 10:02:00,37.8,34.3,29.83,ESE,112,0.0,-999.0,87,-99.99,,,0.02,Acu-Link.com,2013-12-03 15:02:00,
2013-12-03 10:17:00,38.5,34.1,29.83,SW,225,0.0,-999.0,84,-99.99,,,0.02,Acu-Link.com,2013-12-03 15:17:00,
2013-12-03 10:32:00,39.4,35.0,29.83,SW,225,0.0,-999.0,84,-99.99,,,0.03,Acu-Link.com,2013-12-03 15:32:00,
2013-12-03 10:47:00,38.8,34.1,29.83,SW,225,0.0,-999.0,83,-99.99,,,0.03,Acu-Link.com,2013-12-03 15:47:00,
2013-12-03 11:02:00,39.2,34.5,29.83,SW,225,0.0,-999.0,83,-99.99,,,0.03,Acu-Link.com,2013-12-03 16:02:00,
2013-12-03 11:17:00,41.5,35.2,29.82,SW,225,0.0,-999.0,78,-99.99,,,0.03,Acu-Link.com,2013-12-03 16:17:00,
2013-12-03 11:32:00,42.8,35.1,29.82,West,270,0.0,-999.0,74,-99.99,,,0.03,Acu-Link.com,2013-12-03 16:32:00,
2013-12-03 11:47:00,42.1,34.8,29.82,ESE,112,2.2,-999.0,75,-99.99,,,0.03,Acu-Link.com,2013-12-03 16:47:00,
2013-12-03 12:02:00,44.6,34.7,29.80,West,270,0.0,-999.0,68,-99.99,,,0.03,Acu-Link.com,2013-12-03 17:02:00,
2013-12-03 12:18:00,46.9,35.4,29.81,WNW,292,2.7,-999.0,64,-99.99,,,0.03,Acu-Link.com,2013-12-03 17:18:00,
2013-12-03 12:33:00,44.1,33.9,29.80,NW,315,0.0,-999.0,67,-99.99,,,0.03,Acu-Link.com,2013-12-03 17:33:00,
2013-12-03 12:48:00,44.4,34.1,29.79,ESE,112,2.2,-999.0,67,-99.99,,,0.03,Acu-Link.com,2013-12-03 17:48:00,
2013-12-03 13:03:00,47.3,35.7,29.79,ESE,112,1.7,-999.0,64,-99.99,,,0.03,Acu-Link.com,2013-12-03 18:03:00,
2013-12-03 13:18:00,45.9,34.4,29.78,SE,135,1.7,-999.0,64,-99.99,,,0.03,Acu-Link.com,2013-12-03 18:18:00,
2013-12-03 13:33:00,47.7,34.9,29.78,West,270,2.2,-999.0,61,-99.99,,,0.03,Acu-Link.com,2013-12-03 18:33:00,
2013-12-03 13:48:00,46.8,34.9,29.79,West,270,0.0,-999.0,63,-99.99,,,0.03,Acu-Link.com,2013-12-03 18:48:00,
2013-12-03 14:03:00,45.7,34.2,29.78,West,270,1.1,-999.0,64,-99.99,,,0.03,Acu-Link.com,2013-12-03 19:03:00,
2013-12-03 14:34:00,46.0,34.1,29.79,NW,315,2.7,-999.0,63,-99.99,,,0.03,Acu-Link.com,2013-12-03 19:34:00,
2013-12-03 14:49:00,45.1,34.0,29.79,WNW,292,0.0,-999.0,65,-99.99,,,0.03,Acu-Link.com,2013-12-03 19:49:00,
2013-12-03 15:04:00,44.4,33.8,29.80,WNW,292,0.0,-999.0,66,-99.99,,,0.03,Acu-Link.com,2013-12-03 20:04:00,
2013-12-03 15:19:00,44.2,33.9,29.81,SSW,202,0.0,-999.0,67,-99.99,,,0.03,Acu-Link.com,2013-12-03 20:19:00,
2013-12-03 15:34:00,43.7,33.1,29.81,South,180,1.1,-999.0,66,-99.99,,,0.03,Acu-Link.com,2013-12-03 20:34:00,
2013-12-03 15:49:00,43.3,33.5,29.82,South,180,0.0,-999.0,68,-99.99,,,0.03,Acu-Link.com,2013-12-03 20:49:00,
2013-12-03 16:04:00,42.8,33.3,29.82,South,180,0.0,-999.0,69,-99.99,,,0.03,Acu-Link.com,2013-12-03 21:04:00,
2013-12-03 16:19:00,42.3,33.2,29.82,South,180,0.0,-999.0,70,-99.99,,,0.03,Acu-Link.com,2013-12-03 21:19:00,
2013-12-03 16:34:00,41.5,33.5,29.82,South,180,0.0,-999.0,73,-99.99,,,0.03,Acu-Link.com,2013-12-03 21:34:00,
2013-12-03 16:50:00,40.6,33.0,29.82,South,180,0.0,-999.0,74,-99.99,,,0.03,Acu-Link.com,2013-12-03 21:50:00,
2013-12-03 17:05:00,39.6,32.7,29.82,WNW,292,2.7,-999.0,76,-99.99,,,0.03,Acu-Link.com,2013-12-03 22:05:00,
2013-12-03 17:20:00,38.3,32.7,29.82,WNW,292,0.0,-999.0,80,-99.99,,,0.03,Acu-Link.com,2013-12-03 22:20:00,
2013-12-03 17:35:00,36.9,31.0,29.83,WNW,292,0.0,-999.0,79,-99.99,,,0.03,Acu-Link.com,2013-12-03 22:35:00,
2013-12-03 17:51:00,35.6,31.0,29.83,WNW,292,0.0,-999.0,83,-99.99,,,0.03,Acu-Link.com,2013-12-03 22:51:00,
2013-12-03 18:06:00,34.9,30.6,29.83,WNW,292,1.7,-999.0,84,-99.99,,,0.03,Acu-Link.com,2013-12-03 23:06:00,
2013-12-03 19:07:00,34.2,29.9,29.83,WNW,292,0.0,-999.0,84,-99.99,,,0.03,Acu-Link.com,2013-12-04 00:07:00,
2013-12-03 19:23:00,31.5,28.4,29.84,WNW,292,0.0,-999.0,88,-99.99,,,0.03,Acu-Link.com,2013-12-04 00:23:00,
2013-12-03 19:38:00,30.7,27.6,29.84,WNW,292,0.0,-999.0,88,-99.99,,,0.03,Acu-Link.com,2013-12-04 00:38:00,
2013-12-03 19:53:00,30.4,28.1,29.84,WNW,292,0.0,-999.0,91,-99.99,,,0.03,Acu-Link.com,2013-12-04 00:53:00,
2013-12-03 20:23:00,29.7,27.1,29.85,WNW,292,0.0,-999.0,90,-99.99,,,0.03,Acu-Link.com,2013-12-04 01:23:00,
2013-12-03 20:38:00,29.5,27.2,29.85,WNW,292,0.0,-999.0,91,-99.99,,,0.03,Acu-Link.com,2013-12-04 01:38:00,
2013-12-03 20:53:00,28.8,26.5,29.86,WNW,292,0.0,-999.0,91,-99.99,,,0.03,Acu-Link.com,2013-12-04 01:53:00,
2013-12-03 21:09:00,28.6,26.3,29.86,WNW,292,0.0,-999.0,91,-99.99,,,0.03,Acu-Link.com,2013-12-04 02:09:00,
2013-12-03 21:24:00,28.8,26.8,29.87,WNW,292,0.0,-999.0,92,-99.99,,,0.03,Acu-Link.com,2013-12-04 02:24:00,
2013-12-03 21:39:00,28.6,26.3,29.87,WNW,292,0.0,-999.0,91,-99.99,,,0.03,Acu-Link.com,2013-12-04 02:39:00,
2013-12-03 21:54:00,28.6,26.3,29.87,WNW,292,0.0,-999.0,91,-99.99,,,0.03,Acu-Link.com,2013-12-04 02:54:00,
2013-12-03 22:09:00,28.8,27.0,29.86,WNW,292,0.0,-999.0,93,-99.99,,,0.03,Acu-Link.com,2013-12-04 03:09:00,
2013-12-03 22:24:00,29.5,28.2,29.87,WNW,292,0.0,-999.0,95,-99.99,,,0.03,Acu-Link.com,2013-12-04 03:24:00,
2013-12-03 22:39:00,29.8,28.8,29.86,ESE,112,0.0,-999.0,96,-99.99,,,0.03,Acu-Link.com,2013-12-04 03:39:00,
2013-12-03 22:54:00,29.8,28.8,29.87,ESE,112,0.0,-999.0,96,-99.99,,,0.03,Acu-Link.com,2013-12-04 03:54:00,
2013-12-03 23:09:00,29.8,28.8,29.87,ESE,112,0.0,-999.0,96,-99.99,,,0.03,Acu-Link.com,2013-12-04 04:09:00,
2013-12-03 23:25:00,29.8,28.8,29.87,ESE,112,0.0,-999.0,96,-99.99,,,0.03,Acu-Link.com,2013-12-04 04:25:00,
2013-12-03 23:40:00,30.2,29.5,29.86,ESE,112,0.0,-999.0,97,-99.99,,,0.03,Acu-Link.com,2013-12-04 04:40:00,
2013-12-03 23:55:00,30.4,29.7,29.87,ESE,112,0.0,-999.0,97,-99.99,,,0.03,Acu-Link.com,2013-12-04 04:55:00,